Location: Bourg-d�Oueil
(42.8588°N, 0.4991°E)
Time: 15:15:05
(UTC+00:00)

Cosmos 2322 - Pass Details

Date: 16 June 2021
Orbit: 839 x 856 km, 71.0° (Epoch: 31 July)

Event Time Altitude Azimuth Distance (km) Brightness Sun altitude
Exits shadow 22:03:05 24° 192° (SSW) 1,667 4.8 -18.6°
Maximum altitude 22:06:33 74° 111° (ESE) 877 3.6 -18.9°
Drops below altitude 10° 22:12:11 10° 28° (NNE) 2,465 6.6 -19.3°
Sets 22:14:38 0° 27° (NNE) 3,406 7.4 -19.5°
